QPF
0.00 0.00 0.00 0.00 0.00 0.00 0.00 0.00 0.00 0.00 0.00 0.00 0.00 0.00 0.00 0.00 0.00 0.01 0.01 0.02 0.04 0.08 0.11 0.13 0.15 0.17 0.18 0.17 0.16 0.15 0.13 0.22 0.47 0.63 0.67 0.68 0.62 0.60 0.56 0.42 0.34 0.29 0.23 0.16
0.00 0.00 0.00 0.00 0.00 0.00 0.00 0.00 0.00 0.00 0.00 0.00 0.00 0.00 0.00 0.00 0.00 0.00 0.01 0.02 0.05 0.07 0.09 0.11 0.13 0.12 0.11 0.09 0.05 0.04 0.03 0.13 0.26 0.35 0.46 0.50 0.48 0.44 0.35 0.28 0.26 0.20 0.18 0.14
0.00 0.00 0.00 0.00 0.00 0.00 0.00 0.00 0.00 0.00 0.00 0.00 0.00 0.00 0.00 0.00 0.00 0.01 0.01 0.02 0.04 0.06 0.07 0.08 0.09 0.07 0.04 0.03 0.01 0.01 0.01 0.06 0.10 0.13 0.20 0.23 0.24 0.24 0.19 0.15 0.14 0.13 0.13 0.11
0.00 0.00 0.00 0.00 0.00 0.00 0.00 0.00 0.00 0.00 0.00 0.00 0.00 0.00 0.00 0.00 0.01 0.01 0.02 0.02 0.03 0.03 0.04 0.03 0.03 0.02 0.01 0.01 0.00 0.01 0.01 0.02 0.03 0.05 0.08 0.12 0.15 0.17 0.14 0.13 0.14 0.13 0.12 0.10
0.00 0.00 0.00 0.00 0.00 0.00 0.00 0.00 0.00 0.00 0.00 0.00 0.00 0.00 0.00 0.01 0.01 0.01 0.01 0.02 0.02 0.02 0.02 0.02 0.01 0.01 0.00 0.00 0.00 0.00 0.01 0.01 0.02 0.02 0.05 0.07 0.09 0.10 0.12 0.12 0.11 0.12 0.14 0.13
0.00 0.00 0.00 0.00 0.00 0.00 0.00 0.00 0.00 0.00 0.00 0.00 0.00 0.00 0.00 0.00 0.01 0.01 0.01 0.01 0.01 0.01 0.01 0.01 0.01 0.00 0.00 0.00 0.00 0.00 0.01 0.01 0.02 0.02 0.03 0.04 0.05 0.06 0.07 0.08 0.09 0.10 0.13 0.15
0.01 0.01 0.00 0.00 0.01 0.01 0.01 0.00 0.00 0.00 0.00 0.00 0.00 0.00 0.01 0.00 0.00 0.01 0.01 0.01 0.01 0.00 0.00 0.00 0.00 0.00 0.00 0.00 0.00 0.00 0.00 0.00 0.01 0.01 0.02 0.02 0.03 0.04 0.05 0.05 0.06 0.07 0.09 0.11
0.00 0.00 0.01 0.00 0.00 0.01 0.01 0.01 0.01 0.01 0.00 0.01 0.00 0.00 0.00 0.00 0.00 0.00 0.00 0.00 0.00 0.00 0.00 0.00 0.00 0.00 0.00 0.00 0.00 0.00 0.00 0.00 0.00 0.00 0.00 0.00 0.01 0.01 0.01 0.02 0.03 0.04 0.05 0.06
0.00 0.00 0.00 0.00 0.00 0.01 0.01 0.01 0.02 0.01 0.01 0.01 0.01 0.01 0.01 0.01 0.00 0.00 0.00 0.00 0.00 0.00 0.00 0.00 0.00 0.00 0.00 0.00 0.00 0.00 0.00 0.00 0.00 0.00 0.00 0.00 0.00 0.00 0.00 0.00 0.01 0.01 0.02 0.02
0.00 0.00 0.00 0.00 0.00 0.01 0.01 0.01 0.01 0.01 0.01 0.01 0.01 0.02 0.02 0.01 0.01 0.00 0.00 0.00 0.00 0.00 0.00 0.00 0.00 0.00 0.00 0.00 0.00 0.00 0.00 0.00 0.00 0.00 0.00 0.00 0.00 0.00 0.00 0.00 0.00 0.00 0.00 0.01
0.00 0.00 0.00 0.00 0.00 0.00 0.00 0.00 0.01 0.01 0.01 0.01 0.01 0.02 0.02 0.01 0.00 0.00 0.00 0.00 0.00 0.00 0.00 0.00 0.00 0.00 0.00 0.00 0.00 0.00 0.00 0.00 0.00 0.00 0.00 0.00 0.00 0.00 0.00 0.00 0.00 0.00 0.00 0.00
0.00 0.00 0.00 0.00 0.00 0.00 0.00 0.00 0.00 0.00 0.01 0.01 0.01 0.01 0.01 0.00 0.00 0.00 0.00 0.00 0.00 0.00 0.00 0.00 0.00 0.00 0.00 0.00 0.00 0.00 0.00 0.00 0.00 0.00 0.00 0.00 0.00 0.00 0.00 0.00 0.00 0.00 0.00 0.00
0.00 0.00 0.00 0.00 0.00 0.00 0.00 0.00 0.00 0.00 0.00 0.00 0.00 0.00 0.00 0.00 0.00 0.00 0.00 0.00 0.00 0.00 0.00 0.00 0.00 0.00 0.00 0.00 0.00 0.00 0.00 0.00 0.00 0.00 0.00 0.00 0.00 0.00 0.00 0.00 0.00 0.00 0.00 0.00
0.00 0.00 0.00 0.00 0.00 0.00 0.00 0.00 0.00 0.00 0.00 0.00 0.00 0.00 0.00 0.00 0.00 0.00 0.00 0.00 0.00 0.00 0.00 0.00 0.00 0.00 0.00 0.00 0.00 0.00 0.00 0.00 0.00 0.00 0.00 0.00 0.00 0.00 0.00 0.00 0.00 0.00 0.00 0.00
0.00 0.00 0.00 0.00 0.00 0.00 0.00 0.00 0.00 0.00 0.00 0.00 0.00 0.00 0.00 0.00 0.00 0.00 0.00 0.00 0.00 0.00 0.00 0.00 0.00 0.00 0.00 0.00 0.00 0.00 0.00 0.00 0.00 0.00 0.00 0.00 0.00 0.00 0.00 0.00 0.00 0.00 0.00 0.00
0.00 0.00 0.00 0.00 0.00 0.00 0.00 0.00 0.00 0.00 0.00 0.00 0.00 0.00 0.00 0.00 0.00 0.00 0.00 0.00 0.00 0.00 0.00 0.00 0.00 0.00 0.00 0.00 0.00 0.00 0.00 0.00 0.00 0.00 0.00 0.00 0.00 0.00 0.00 0.00 0.00 0.00 0.00 0.00
0.00 0.00 0.00 0.00 0.00 0.00 0.00 0.00 0.00 0.00 0.00 0.00 0.00 0.00 0.00 0.00 0.00 0.00 0.00 0.00 0.00 0.00 0.00 0.00 0.00 0.00 0.00 0.00 0.00 0.00 0.00 0.00 0.00 0.00 0.00 0.01 0.01 0.01 0.01 0.01 0.01 0.01 0.01 0.00
0.00 0.00 0.00 0.00 0.00 0.00 0.00 0.00 0.00 0.00 0.00 0.00 0.00 0.00 0.00 0.00 0.00 0.00 0.00 0.00 0.00 0.00 0.00 0.00 0.00 0.00 0.00 0.00 0.00 0.00 0.00 0.00 0.00 0.01 0.01 0.02 0.03 0.03 0.04 0.04 0.04 0.03 0.02 0.02
0.00 0.00 0.00 0.00 0.00 0.00 0.00 0.00 0.00 0.00 0.00 0.00 0.00 0.00 0.00 0.00 0.00 0.00 0.00 0.00 0.00 0.00 0.00 0.00 0.00 0.00 0.00 0.00 0.00 0.00 0.00 0.00 0.00 0.01 0.02 0.04 0.06 0.08 0.09 0.09 0.07 0.06 0.05 0.04
0.00 0.00 0.00 0.00 0.00 0.00 0.00 0.00 0.00 0.00 0.00 0.00 0.00 0.00 0.00 0.00 0.00 0.00 0.00 0.00 0.00 0.00 0.00 0.00 0.00 0.00 0.00 0.00 0.00 0.00 0.00 0.01 0.01 0.02 0.03 0.06 0.08 0.11 0.12 0.11 0.10 0.09 0.08 0.06
0.00 0.00 0.00 0.00 0.00 0.00 0.00 0.00 0.00 0.00 0.00 0.00 0.00 0.00 0.00 0.00 0.00 0.00 0.00 0.00 0.00 0.00 0.00 0.00 0.00 0.00 0.00 0.00 0.00 0.01 0.01 0.01 0.01 0.02 0.03 0.05 0.07 0.10 0.11 0.11 0.10 0.09 0.08 0.07
0.00 0.00 0.00 0.00 0.00 0.00 0.00 0.00 0.00 0.00 0.00 0.00 0.00 0.00 0.00 0.00 0.00 0.00 0.00 0.00 0.00 0.00 0.00 0.00 0.00 0.00 0.00 0.00 0.00 0.01 0.01 0.01 0.02 0.03 0.04 0.04 0.06 0.09 0.12 0.14 0.13 0.12 0.09 0.07
0.00 0.00 0.00 0.00 0.00 0.00 0.00 0.00 0.00 0.00 0.00 0.00 0.00 0.00 0.00 0.00 0.00 0.00 0.00 0.00 0.00 0.00 0.00 0.00 0.00 0.00 0.00 0.00 0.01 0.01 0.01 0.01 0.02 0.03 0.04 0.04 0.05 0.07 0.09 0.10 0.12 0.12 0.11 0.08
0.00 0.00 0.00 0.00 0.00 0.00 0.00 0.00 0.00 0.00 0.00 0.00 0.00 0.00 0.00 0.00 0.00 0.00 0.00 0.00 0.00 0.00 0.00 0.00 0.00 0.00 0.00 0.00 0.00 0.01 0.01 0.01 0.02 0.02 0.03 0.04 0.04 0.05 0.06 0.08 0.09 0.08 0.08 0.06
0.00 0.00 0.00 0.00 0.00 0.00 0.00 0.00 0.00 0.00 0.00 0.00 0.00 0.00 0.00 0.00 0.00 0.00 0.00 0.00 0.00 0.00 0.00 0.00 0.00 0.00 0.00 0.00 0.00 0.00 0.01 0.01 0.01 0.02 0.02 0.03 0.03 0.03 0.05 0.06 0.08 0.07 0.07 0.06
0.00 0.00 0.00 0.00 0.00 0.00 0.00 0.00 0.00 0.00 0.00 0.00 0.00 0.00 0.00 0.00 0.00 0.00 0.00 0.00 0.00 0.00 0.00 0.00 0.00 0.00 0.00 0.00 0.00 0.01 0.01 0.01 0.01 0.01 0.01 0.01 0.02 0.02 0.02 0.04 0.05 0.05 0.04 0.04
MSLP
1010.51 1011.21 1011.70 1011.99 1012.17 1012.32 1012.54 1012.92 1013.47 1014.16 1014.91 1015.60 1016.15 1016.45 1016.48 1016.25 1015.83 1015.31 1014.80 1014.38 1014.09 1013.96 1013.95 1013.98 1014.00 1013.92 1013.72 1013.39 1012.94 1012.42 1011.89 1011.38 1010.93 1010.55 1010.24 1009.99 1009.77 1009.57 1009.41 1009.28 1009.22 1009.24 1009.36 1009.56
1010.84 1011.38 1011.71 1011.89 1011.99 1012.12 1012.40 1012.89 1013.58 1014.42 1015.31 1016.13 1016.76 1017.11 1017.16 1016.91 1016.44 1015.87 1015.30 1014.82 1014.48 1014.30 1014.23 1014.22 1014.18 1014.06 1013.82 1013.46 1013.02 1012.52 1012.03 1011.59 1011.23 1010.93 1010.70 1010.48 1010.28 1010.06 1009.84 1009.62 1009.45 1009.35 1009.35 1009.46
1011.01 1011.37 1011.53 1011.58 1011.62 1011.76 1012.09 1012.68 1013.50 1014.48 1015.50 1016.42 1017.12 1017.50 1017.54 1017.27 1016.77 1016.16 1015.56 1015.05 1014.70 1014.50 1014.41 1014.38 1014.32 1014.17 1013.92 1013.57 1013.13 1012.67 1012.24 1011.88 1011.59 1011.38 1011.21 1011.05 1010.86 1010.64 1010.37 1010.09 1009.83 1009.62 1009.50 1009.49
1011.10 1011.25 1011.25 1011.19 1011.18 1011.33 1011.74 1012.44 1013.39 1014.49 1015.61 1016.60 1017.33 1017.72 1017.74 1017.44 1016.92 1016.29 1015.67 1015.16 1014.81 1014.62 1014.54 1014.51 1014.44 1014.30 1014.04 1013.68 1013.26 1012.82 1012.43 1012.11 1011.89 1011.74 1011.63 1011.52 1011.37 1011.16 1010.88 1010.55 1010.23 1009.94 1009.73 1009.61
1011.19 1011.15 1011.00 1010.84 1010.81 1011.00 1011.49 1012.30 1013.36 1014.56 1015.75 1016.78 1017.52 1017.90 1017.90 1017.56 1017.00 1016.35 1015.74 1015.23 1014.90 1014.72 1014.66 1014.63 1014.57 1014.41 1014.15 1013.78 1013.35 1012.91 1012.53 1012.23 1012.04 1011.93 1011.86 1011.79 1011.68 1011.49 1011.23 1010.91 1010.56 1010.23 1009.95 1009.76
1011.36 1011.15 1010.89 1010.68 1010.65 1010.89 1011.47 1012.37 1013.52 1014.79 1016.02 1017.06 1017.78 1018.12 1018.07 1017.69 1017.10 1016.44 1015.82 1015.32 1015.00 1014.83 1014.77 1014.74 1014.67 1014.50 1014.21 1013.81 1013.35 1012.89 1012.48 1012.17 1011.97 1011.87 1011.83 1011.79 1011.72 1011.57 1011.35 1011.06 1010.73 1010.40 1010.11 1009.86
1011.69 1011.35 1011.01 1010.78 1010.77 1011.08 1011.73 1012.71 1013.92 1015.22 1016.46 1017.46 1018.14 1018.41 1018.31 1017.88 1017.26 1016.58 1015.95 1015.45 1015.12 1014.96 1014.89 1014.84 1014.74 1014.53 1014.20 1013.76 1013.25 1012.74 1012.28 1011.93 1011.70 1011.58 1011.53 1011.51 1011.47 1011.38 1011.21 1010.98 1010.71 1010.41 1010.14 1009.89
1012.17 1011.76 1011.40 1011.18 1011.22 1011.58 1012.29 1013.31 1014.54 1015.82 1017.01 1017.95 1018.55 1018.76 1018.59 1018.11 1017.46 1016.75 1016.11 1015.61 1015.27 1015.08 1014.98 1014.89 1014.75 1014.49 1014.10 1013.61 1013.04 1012.47 1011.96 1011.56 1011.28 1011.12 1011.05 1011.03 1011.01 1010.95 1010.84 1010.68 1010.47 1010.24 1010.01 1009.79
1012.75 1012.35 1012.01 1011.84 1011.93 1012.34 1013.08 1014.10 1015.29 1016.51 1017.60 1018.45 1018.95 1019.07 1018.84 1018.33 1017.65 1016.94 1016.29 1015.77 1015.41 1015.18 1015.03 1014.89 1014.69 1014.38 1013.93 1013.39 1012.77 1012.15 1011.59 1011.12 1010.79 1010.58 1010.47 1010.42 1010.40 1010.36 1010.30 1010.19 1010.05 1009.89 1009.72 1009.55
1013.37 1013.03 1012.77 1012.68 1012.83 1013.27 1014.00 1014.97 1016.06 1017.16 1018.13 1018.85 1019.25 1019.29 1019.01 1018.47 1017.80 1017.09 1016.45 1015.92 1015.53 1015.26 1015.05 1014.85 1014.58 1014.21 1013.72 1013.14 1012.49 1011.83 1011.23 1010.72 1010.33 1010.07 1009.90 1009.80 1009.75 1009.70 1009.64 1009.57 1009.47 1009.37 1009.26 1009.15
1013.93 1013.72 1013.58 1013.58 1013.79 1014.24 1014.92 1015.80 1016.76 1017.70 1018.51 1019.09 1019.37 1019.35 1019.04 1018.51 1017.86 1017.19 1016.56 1016.04 1015.63 1015.31 1015.05 1014.78 1014.46 1014.04 1013.52 1012.91 1012.25 1011.59 1010.97 1010.42 1009.99 1009.65 1009.41 1009.24 1009.11 1009.01 1008.92 1008.84 1008.76 1008.70 1008.63 1008.58
1014.37 1014.33 1014.33 1014.44 1014.71 1015.15 1015.77 1016.51 1017.30 1018.06 1018.69 1019.12 1019.30 1019.23 1018.92 1018.43 1017.84 1017.22 1016.64 1016.14 1015.72 1015.37 1015.05 1014.72 1014.34 1013.89 1013.35 1012.74 1012.09 1011.44 1010.82 1010.26 1009.77 1009.37 1009.04 1008.76 1008.53 1008.34 1008.18 1008.05 1007.96 1007.90 1007.87 1007.87
1014.68 1014.83 1014.99 1015.21 1015.53 1015.95 1016.47 1017.06 1017.67 1018.23 1018.68 1018.97 1019.06 1018.96 1018.67 1018.24 1017.74 1017.21 1016.69 1016.22 1015.81 1015.43 1015.07 1014.69 1014.27 1013.78 1013.24 1012.64 1012.02 1011.38 1010.77 1010.19 1009.66 1009.18 1008.74 1008.35 1007.99 1007.68 1007.42 1007.21 1007.07 1007.00 1006.99 1007.03
1014.91 1015.23 1015.55 1015.86 1016.21 1016.59 1017.01 1017.44 1017.86 1018.23 1018.51 1018.67 1018.70 1018.58 1018.34 1017.99 1017.59 1017.16 1016.73 1016.31 1015.90 1015.51 1015.10 1014.67 1014.21 1013.70 1013.15 1012.57 1011.97 1011.36 1010.76 1010.17 1009.59 1009.03 1008.48 1007.96 1007.46 1007.01 1006.63 1006.33 1006.13 1006.04 1006.04 1006.12
1015.12 1015.60 1016.03 1016.42 1016.77 1017.10 1017.41 1017.69 1017.92 1018.11 1018.24 1018.29 1018.26 1018.15 1017.97 1017.72 1017.42 1017.10 1016.74 1016.37 1015.98 1015.57 1015.12 1014.65 1014.14 1013.61 1013.05 1012.48 1011.90 1011.31 1010.71 1010.10 1009.47 1008.83 1008.17 1007.52 1006.88 1006.30 1005.80 1005.41 1005.16 1005.04 1005.05 1005.16
1015.40 1015.97 1016.47 1016.89 1017.23 1017.49 1017.68 1017.82 1017.89 1017.92 1017.92 1017.88 1017.82 1017.72 1017.59 1017.44 1017.24 1017.01 1016.73 1016.40 1016.01 1015.58 1015.09 1014.57 1014.02 1013.45 1012.88 1012.31 1011.73 1011.15 1010.55 1009.92 1009.24 1008.52 1007.77 1007.00 1006.24 1005.55 1004.95 1004.49 1004.18 1004.05 1004.07 1004.22
1015.77 1016.37 1016.89 1017.30 1017.59 1017.77 1017.85 1017.85 1017.78 1017.69 1017.58 1017.48 1017.39 1017.31 1017.24 1017.16 1017.04 1016.88 1016.66 1016.35 1015.96 1015.50 1014.97 1014.39 1013.79 1013.19 1012.59 1012.00 1011.42 1010.84 1010.22 1009.57 1008.85 1008.07 1007.24 1006.38 1005.54 1004.76 1004.10 1003.58 1003.25 1003.11 1003.14 1003.32
1016.24 1016.80 1017.27 1017.62 1017.84 1017.92 1017.90 1017.78 1017.61 1017.41 1017.23 1017.09 1016.98 1016.92 1016.89 1016.86 1016.81 1016.70 1016.50 1016.20 1015.80 1015.30 1014.72 1014.09 1013.44 1012.79 1012.16 1011.55 1010.96 1010.36 1009.73 1009.05 1008.30 1007.48 1006.60 1005.70 1004.80 1003.98 1003.28 1002.75 1002.41 1002.27 1002.31 1002.52
1016.74 1017.21 1017.58 1017.83 1017.94 1017.93 1017.80 1017.60 1017.35 1017.09 1016.87 1016.70 1016.59 1016.55 1016.55 1016.55 1016.53 1016.44 1016.25 1015.94 1015.52 1014.98 1014.35 1013.67 1012.97 1012.28 1011.61 1010.97 1010.36 1009.75 1009.11 1008.41 1007.65 1006.81 1005.92 1004.99 1004.09 1003.26 1002.55 1002.02 1001.68 1001.55 1001.61 1001.83
1017.15 1017.48 1017.72 1017.85 1017.86 1017.75 1017.55 1017.29 1016.99 1016.71 1016.48 1016.31 1016.21 1016.18 1016.20 1016.22 1016.21 1016.12 1015.92 1015.59 1015.14 1014.56 1013.89 1013.17 1012.43 1011.70 1011.00 1010.34 1009.71 1009.08 1008.43 1007.73 1006.97 1006.13 1005.24 1004.34 1003.45 1002.64 1001.95 1001.44 1001.11 1000.99 1001.05 1001.26
1017.38 1017.55 1017.65 1017.65 1017.55 1017.37 1017.12 1016.84 1016.54 1016.27 1016.05 1015.91 1015.83 1015.82 1015.85 1015.88 1015.86 1015.76 1015.53 1015.18 1014.70 1014.09 1013.40 1012.64 1011.87 1011.11 1010.39 1009.71 1009.06 1008.42 1007.77 1007.07 1006.32 1005.51 1004.65 1003.78 1002.93 1002.16 1001.51 1001.02 1000.71 1000.58 1000.63 1000.81
1017.34 1017.35 1017.30 1017.19 1017.02 1016.79 1016.53 1016.26 1016.00 1015.77 1015.60 1015.50 1015.46 1015.47 1015.51 1015.53 1015.50 1015.38 1015.14 1014.76 1014.26 1013.63 1012.91 1012.15 1011.36 1010.59 1009.85 1009.15 1008.49 1007.84 1007.18 1006.49 1005.76 1004.98 1004.17 1003.35 1002.55 1001.83 1001.22 1000.75 1000.45 1000.32 1000.34 1000.48
1016.99 1016.87 1016.71 1016.51 1016.29 1016.06 1015.83 1015.60 1015.41 1015.26 1015.16 1015.11 1015.12 1015.16 1015.20 1015.22 1015.16 1015.02 1014.76 1014.36 1013.84 1013.21 1012.49 1011.72 1010.93 1010.16 1009.41 1008.70 1008.02 1007.37 1006.71 1006.03 1005.32 1004.58 1003.81 1003.04 1002.31 1001.64 1001.07 1000.62 1000.33 1000.18 1000.17 1000.27
1016.36 1016.13 1015.90 1015.66 1015.43 1015.23 1015.06 1014.92 1014.82 1014.76 1014.74 1014.77 1014.82 1014.88 1014.93 1014.93 1014.86 1014.70 1014.42 1014.02 1013.49 1012.86 1012.15 1011.39 1010.61 1009.83 1009.08 1008.36 1007.67 1007.00 1006.34 1005.67 1004.98 1004.27 1003.55 1002.84 1002.16 1001.54 1001.02 1000.60 1000.31 1000.15 1000.10 1000.15
1015.52 1015.23 1014.96 1014.72 1014.53 1014.39 1014.31 1014.27 1014.28 1014.33 1014.40 1014.49 1014.58 1014.66 1014.70 1014.69 1014.60 1014.41 1014.12 1013.71 1013.19 1012.57 1011.88 1011.13 1010.36 1009.59 1008.84 1008.10 1007.40 1006.72 1006.04 1005.37 1004.70 1004.02 1003.35 1002.70 1002.08 1001.52 1001.03 1000.65 1000.36 1000.19 1000.11 1000.11
1014.56 1014.24 1013.98 1013.78 1013.66 1013.62 1013.64 1013.72 1013.84 1013.99 1014.14 1014.28 1014.40 1014.48 1014.52 1014.48 1014.36 1014.15 1013.84 1013.43 1012.91 1012.32 1011.65 1010.92 1010.17 1009.40 1008.64 1007.90 1007.17 1006.46 1005.78 1005.10 1004.44 1003.79 1003.16 1002.55 1001.99 1001.49 1001.06 1000.71 1000.45 1000.27 1000.17 1000.15
Thickness
5769 5754 5745 5750 5753 5755 5751 5745 5738 5739 5741 5729 5720 5717 5722 5729 5733 5732 5732 5731 5729 5727 5728 5728 5728 5727 5725 5724 5721 5720 5718 5717 5718 5718 5716 5714 5712 5711 5709 5710 5709 5708 5708 5711
5749 5748 5761 5766 5764 5755 5750 5743 5737 5734 5736 5724 5713 5711 5716 5720 5720 5721 5720 5719 5719 5717 5717 5717 5717 5716 5715 5714 5712 5711 5709 5709 5709 5709 5708 5707 5706 5706 5704 5706 5704 5704 5706 5709
5747 5757 5771 5768 5762 5756 5752 5746 5741 5732 5728 5721 5713 5702 5704 5710 5713 5713 5711 5710 5709 5708 5705 5704 5705 5705 5705 5703 5702 5702 5701 5700 5700 5700 5700 5701 5700 5699 5698 5698 5697 5699 5702 5704
5753 5764 5765 5762 5759 5759 5745 5758 5753 5740 5721 5706 5712 5691 5693 5696 5698 5701 5701 5700 5698 5697 5696 5695 5695 5695 5695 5695 5693 5692 5691 5691 5690 5690 5689 5688 5686 5685 5686 5686 5689 5692 5695 5696
5749 5760 5759 5756 5761 5764 5755 5755 5747 5736 5720 5705 5703 5691 5688 5690 5687 5690 5692 5692 5691 5689 5688 5686 5686 5686 5686 5685 5684 5682 5680 5680 5679 5678 5677 5677 5676 5676 5678 5679 5680 5682 5685 5686
5753 5765 5764 5763 5768 5768 5760 5746 5734 5719 5708 5694 5696 5691 5685 5686 5686 5686 5686 5686 5684 5683 5681 5679 5679 5678 5676 5675 5674 5672 5670 5668 5667 5666 5665 5664 5664 5665 5666 5667 5668 5670 5672 5674
5739 5754 5764 5768 5759 5758 5749 5725 5700 5696 5685 5687 5695 5688 5685 5693 5692 5687 5682 5679 5678 5676 5673 5670 5669 5667 5666 5665 5663 5661 5659 5657 5655 5654 5653 5652 5651 5652 5652 5653 5654 5656 5659 5661
5721 5724 5751 5760 5756 5747 5741 5725 5696 5685 5678 5680 5687 5682 5685 5692 5689 5685 5680 5675 5671 5668 5664 5661 5660 5658 5657 5655 5653 5650 5647 5645 5643 5641 5640 5639 5638 5637 5638 5639 5640 5642 5645 5648
5722 5723 5751 5758 5760 5754 5736 5717 5714 5689 5683 5672 5676 5682 5685 5684 5680 5675 5671 5666 5661 5658 5655 5653 5651 5649 5647 5644 5642 5639 5635 5632 5630 5628 5626 5624 5623 5622 5623 5624 5625 5626 5630 5633
5733 5721 5735 5746 5752 5746 5736 5717 5699 5685 5671 5664 5671 5670 5662 5667 5665 5664 5660 5655 5652 5650 5647 5644 5641 5638 5634 5631 5628 5625 5621 5619 5617 5615 5612 5612 5610 5609 5609 5608 5609 5611 5613 5616
5734 5716 5719 5729 5722 5717 5722 5712 5690 5675 5673 5661 5654 5656 5662 5658 5657 5653 5651 5648 5644 5641 5637 5634 5629 5624 5620 5616 5613 5610 5608 5606 5605 5604 5602 5600 5599 5598 5596 5595 5596 5597 5598 5600
5725 5708 5701 5713 5725 5727 5718 5706 5693 5679 5669 5659 5649 5647 5657 5654 5651 5649 5645 5641 5637 5632 5627 5622 5617 5612 5607 5603 5601 5598 5596 5594 5594 5594 5592 5590 5589 5586 5584 5583 5584 5583 5583 5585
5724 5704 5686 5690 5699 5710 5705 5700 5687 5674 5660 5651 5644 5648 5653 5648 5646 5642 5637 5633 5628 5623 5618 5613 5607 5601 5597 5594 5591 5588 5586 5584 5583 5581 5579 5577 5576 5574 5572 5572 5572 5571 5571 5571
5725 5699 5689 5683 5688 5696 5694 5691 5687 5673 5655 5651 5652 5651 5649 5644 5639 5635 5631 5627 5621 5615 5609 5603 5597 5592 5588 5585 5581 5578 5576 5573 5570 5567 5564 5562 5561 5560 5559 5558 5557 5557 5558 5558
5719 5699 5699 5697 5700 5698 5690 5685 5681 5673 5667 5653 5654 5650 5648 5642 5635 5631 5626 5620 5614 5608 5602 5595 5589 5585 5580 5577 5573 5569 5565 5561 5556 5552 5548 5546 5545 5544 5542 5541 5540 5541 5542 5545
5709 5699 5697 5694 5695 5691 5682 5680 5678 5672 5667 5660 5653 5646 5648 5640 5630 5623 5617 5612 5605 5599 5595 5589 5583 5578 5573 5569 5565 5560 5554 5549 5542 5537 5533 5529 5526 5523 5522 5521 5522 5524 5526 5528
5700 5695 5686 5680 5686 5682 5672 5675 5674 5668 5663 5656 5644 5644 5643 5634 5625 5618 5613 5607 5599 5594 5588 5582 5576 5571 5567 5562 5557 5550 5544 5537 5529 5522 5517 5512 5507 5504 5502 5503 5505 5508 5510 5513
5702 5687 5674 5673 5677 5670 5674 5685 5680 5670 5663 5656 5649 5643 5638 5630 5623 5614 5607 5599 5592 5587 5581 5575 5571 5567 5562 5556 5549 5542 5534 5526 5518 5509 5502 5496 5491 5487 5486 5486 5489 5493 5496 5500
5705 5691 5674 5664 5666 5667 5675 5680 5674 5663 5655 5655 5646 5639 5633 5628 5618 5612 5608 5599 5590 5582 5575 5570 5566 5561 5556 5550 5543 5535 5527 5518 5509 5500 5493 5486 5479 5475 5473 5474 5476 5480 5483 5488
5697 5689 5673 5662 5664 5656 5671 5681 5679 5664 5649 5652 5644 5635 5627 5617 5604 5606 5605 5594 5586 5578 5571 5567 5562 5557 5552 5546 5538 5530 5522 5513 5504 5494 5486 5478 5472 5467 5465 5465 5467 5470 5474 5480
5691 5678 5669 5661 5657 5663 5678 5680 5671 5649 5648 5652 5642 5634 5624 5610 5601 5601 5594 5586 5579 5572 5568 5563 5559 5554 5548 5543 5534 5525 5517 5508 5499 5491 5483 5475 5469 5464 5462 5461 5462 5465 5469 5474
5684 5673 5664 5653 5654 5660 5682 5672 5661 5657 5657 5650 5642 5633 5623 5613 5604 5597 5590 5582 5576 5571 5566 5562 5556 5552 5546 5539 5531 5522 5514 5506 5497 5489 5482 5475 5469 5464 5463 5460 5460 5462 5466 5470
5683 5681 5672 5668 5669 5678 5679 5674 5671 5661 5653 5648 5639 5632 5621 5611 5602 5594 5586 5579 5573 5568 5564 5559 5554 5550 5545 5538 5529 5520 5513 5505 5497 5490 5483 5476 5471 5466 5463 5461 5460 5461 5464 5467
5689 5682 5675 5672 5676 5678 5677 5674 5670 5661 5652 5647 5638 5628 5619 5608 5598 5589 5582 5577 5572 5567 5562 5557 5552 5548 5544 5537 5529 5521 5513 5505 5498 5492 5486 5481 5475 5471 5467 5464 5463 5464 5465 5467
5692 5682 5675 5673 5677 5676 5673 5669 5665 5659 5651 5642 5634 5625 5616 5605 5596 5588 5581 5576 5571 5565 5560 5555 5550 5546 5542 5537 5531 5523 5515 5507 5500 5495 5490 5485 5480 5475 5471 5469 5468 5468 5468 5469
5688 5683 5676 5675 5680 5672 5670 5670 5663 5654 5647 5639 5630 5622 5613 5604 5595 5588 5581 5574 5569 5564 5558 5554 5550 5546 5542 5537 5531 5525 5518 5510 5503 5498 5494 5489 5485 5480 5477 5474 5473 5472 5471 5472